Location: Kunchanapalle
(16.4623°N, 80.6176°E)
Time: 10:18:51
(UTC+00:00)

Cosmos 1302 Rocket - Pass Details

Date: 13 August 2020
Orbit: 756 x 776 km, 74.0° (Epoch: 18 September)

Event Time Altitude Azimuth Distance (km) Brightness Sun altitude
Rises 13:16:13 0° 351° (N) 3,215 7.6 -3.8°
Reaches altitude 10° 13:18:36 10° 354° (N) 2,292 6.8 -4.3°
Maximum altitude 13:23:45 65° 76° (ENE) 839 4.0 -5.5°
Drops below altitude 10° 13:28:56 10° 158° (SSE) 2,302 6.1 -6.7°
Sets 13:31:19 0° 161° (SSE) 3,230 6.9 -7.3°
